Location: Saint-Christaud
(43.5298°N, 0.2599°E)
Time: 18:09:51
(UTC+00:00)

Daily predictions for brighter satellites

Satellite Brightness Start Highest point End
(mag) Time Altitude Azimuth Time Altitude Azimuth Time Altitude Azimuth
Cosmos 292 Rocket 3.8 17:14:33 10° S 17:19:16 61° ESE 17:24:02 10° NNE
Meteor 2-21 4.4 17:13:21 10° N 17:19:31 74° E 17:25:36 10° SSE
Cosmos 968 Rocket 4.5 17:19:25 10° N 17:23:45 26° ENE 17:28:02 10° ESE
COSMOS 2487 4.2 17:21:29 10° NW 17:24:41 37° WSW 17:27:52 10° S
Atlas Centaur 2 4.4 17:18:45 10° SW 17:25:12 26° SSE 17:31:54 10° ESE
Cosmos 1300 2.8 17:21:44 10° S 17:25:27 52° E 17:29:10 10° NNE
FALCON 9 DEB 3.2 17:22:35 10° WSW 17:25:48 68° NNW 17:29:00 10° NE
Lacrosse 5 3.8 17:23:35 10° NW 17:27:06 18° N 17:30:37 10° NE
Cosmos 1606 Rocket 3.5 17:23:50 10° S 17:28:11 74° E 17:32:35 10° NNE
Cosmos 1697 Rocket 3.9 17:24:32 10° SE 17:28:32 20° E 17:32:32 10° NE
FALCON 9 DEB 3.3 17:25:44 10° WSW 17:28:54 59° NNW 17:32:04 10° NE
CZ-4 R/B 2.9 17:26:36 10° ESE 17:29:00 16° ENE 17:31:24 10° NNE
SMAP 3.2 17:25:15 10° SSE 17:29:54 85° WSW 17:34:36 10° NNW
Cosmos 2058 4.4 17:30:24 10° NNE 17:33:05 17° ENE 17:35:45 10° ESE
SAR-Lupe-4 4.0 17:32:14 10° NNE 17:35:39 39° E 17:39:01 10° S
Cosmos 1110 Rocket 4.5 17:31:20 10° SSW 17:36:32 66° WNW 17:41:45 10° NNE
CZ-2D R/B 4.3 17:33:48 10° SE 17:36:56 25° ENE 17:40:04 10° NNE
Cosmos 1302 Rocket 4.1 17:33:31 10° S 17:38:41 61° ESE 17:43:54 10° NNE
SKYMED 2 4.1 17:35:11 10° NNE 17:39:14 37° E 17:43:15 10° SSE
ERS-2 2.1 17:35:59 10° NNE 17:39:38 89° ESE 17:43:16 10° SSW
SL-4 R/B 3.3 17:37:04 10° NW 17:39:56 22° N 17:42:47 11° ENE
NOAA 11 4.2 17:34:45 10° SSE 17:40:08 68° ENE 17:45:33 10° N
Okean-O 3.6 17:37:50 10° ESE 17:41:33 27° ENE 17:45:16 10° N
ADEOS Rocket 4.0 17:35:31 10° N 17:41:50 57° WNW 17:48:48 10° SW
FALCON 9 DEB 3.7 17:39:07 10° WSW 17:42:18 49° NNW 17:45:25 10° NE
USA 281 3.5 17:36:09 10° SSE 17:42:41 78° WSW 17:49:18 10° NNW
Cosmos 1346 Rocket 4.0 17:39:45 10° NNE 17:42:51 21° ENE 17:45:55 10° ESE
Envisat 4.5 17:39:56 10° S 17:44:43 42° W 17:49:33 10° NNW
Cosmos 1340 2.9 17:42:53 10° N 17:46:32 44° ENE 17:50:08 10° SSE
Meteor 2-16 Rocket 4.4 17:42:04 10° N 17:48:11 79° E 17:54:16 10° SSE
Cosmos 1486 Rocket 4.4 17:43:58 10° N 17:49:02 42° ENE 17:54:04 10° SE
Cosmos 1315 Rocket 4.1 17:46:45 10° SE 17:49:41 20° E 17:52:40 10° NE
Cosmos 1980 Rocket 3.6 17:48:24 10° SE 17:51:46 16° E 17:53:25 15° ENE
FALCON 9 DEB 4.0 17:49:52 10° W 17:52:55 39° NNW 17:55:34 13° NE
USA 305 3.9 17:49:11 10° NW 17:53:05 32° NNE 17:55:44 17° ENE
SAR-Lupe-1 4.0 17:49:58 10° NNE 17:53:34 63° ESE 17:57:07 10° S
Cosmos 2297 Rocket 2.2 17:48:22 10° NNW 17:54:01 65° ENE 17:59:38 10° SE
Cosmos 1689 Rocket 2.3 17:51:25 10° NNE 17:54:12 42° E 17:56:57 10° S
In-Cosmos 22 Rocket 4.1 17:51:03 10° N 17:56:22 58° ENE 18:01:46 10° SSE
CZ-4B R/B 2.0 17:53:52 10° N 17:57:00 54° WNW 18:00:03 10° SSW
Aureole 3 2.5 17:56:06 10° S 17:59:15 78° E 18:02:13 10° N
USA 306 3.8 17:55:39 10° NW 17:59:34 34° NNE 18:01:57 19° ENE
Cosmos 1953 Rocket 3.9 17:55:48 10° NNW 18:00:12 70° W 18:04:37 10° S
Cosmos 1244 Rocket 4.5 17:57:35 10° N 18:03:50 86° E 18:10:07 10° S
Cosmos 2058 Rocket 3.1 17:59:23 10° S 18:03:52 87° E 18:08:24 10° N
CZ-2C R/B 3.6 18:02:16 10° SE 18:07:42 44° ENE 18:13:00 10° N
Cosmos 1455 2.7 18:09:54 10° SSE 18:13:23 36° E 18:16:53 10° NNE
CZ-4C R/B 4.3 18:09:20 10° NNW 18:13:49 18° NNE 18:17:00 14° NE
Cosmos 1992 Rocket 4.1 18:11:27 10° S 18:16:28 52° ESE 18:21:32 10° NNE
Meteor 2-10 Rocket 3.5 18:13:44 10° S 18:18:56 59° E 18:23:59 10° NNE
Cosmos 1076 Rocket 3.8 18:18:25 10° N 18:22:26 39° ENE 18:25:00 19° SE
Cosmos 2278 4.4 18:18:01 10° SSE 18:22:58 32° ESE 18:24:51 26° ENE
Cosmos 2219 3.6 18:20:15 10° NNW 18:25:59 69° WSW 18:31:40 10° SSE
COSMO-SKYMED 1 2.9 18:23:02 10° N 18:27:21 66° WNW 18:31:39 10° SSW
Geosat 4.2 18:29:49 22° NE 18:32:48 49° ESE 18:37:38 10° S
SL-08 ROCKET BODY 4.4 18:27:12 10° N 18:33:21 86° E 18:39:33 10° S
Cosmos 2082 3.7 18:28:17 10° NNW 18:34:00 62° ENE 18:38:04 19° SE
H-2A R/B 2.3 18:29:01 10° SE 18:34:14 51° ENE 18:39:31 10° N
SJ-11-01 4.4 18:34:08 23° SE 18:36:48 51° ENE 18:41:20 10° N
Cosmos 1939 Rocket 4.0 18:33:43 10° S 18:37:31 44° W 18:41:17 10° NNW
ARGOS 3.5 18:36:01 31° ESE 18:37:50 41° ENE 18:42:54 10° N
YAOGAN 1 2.4 18:35:10 10° SSE 18:39:29 82° ENE 18:43:50 10° N
S3M 3.8 18:33:47 10° S 18:39:53 83° E 18:46:05 10° N
Cosmos 2315 Rocket 4.2 18:35:51 10° SSE 18:41:39 44° E 18:47:28 10° NNE
CRYOSAT 2 4.2 18:36:56 10° N 18:41:47 65° E 18:46:36 10° S
Cosmos 1656 4.3 18:37:23 10° SW 18:42:50 55° WNW 18:48:24 10° NNE
GEOS 3 Rocket 4.0 18:41:32 38° E 18:43:00 47° NE 18:48:09 10° NNW
USA 307 3.0 18:38:54 10° NW 18:43:07 56° NNE 18:43:36 52° ENE
SeaSat 1 3.1 18:43:27 34° NE 18:43:27 34° NE 18:47:47 10° N
Cosmos 1408 2.6 18:41:44 10° N 18:45:24 81° W 18:49:02 10° S
Cosmos 1812 Rocket 3.4 18:42:01 10° S 18:46:23 70° E 18:50:45 10° NNE
NOSS 3-4 (A) 4.4 18:40:12 10° NNW 18:46:39 39° NE 18:48:36 34° ENE
NOSS 3-4 (C) 4.4 18:40:19 10° NNW 18:46:45 39° NE 18:48:40 34° ENE
Cosmos 2369 3.6 18:41:08 10° SSW 18:46:50 76° ESE 18:51:18 17° NNE
USA 308 2.9 18:43:49 10° NW 18:48:04 60° NNE 18:48:20 59° NE
Helios 1A Rocket 3.8 18:46:02 10° S 18:50:01 50° W 18:54:02 10° NNW
Cosmos 1892 3.9 18:48:13 10° NNW 18:51:54 43° W 18:55:35 10° SSW
NOSS 3-3 (A) 3.9 18:48:51 10° SW 18:54:38 83° NW 18:59:03 22° NE
NOSS 3-3 (C) 3.9 18:48:57 10° SW 18:54:45 83° NW 18:59:07 22° NE
USA 215 4.2 18:54:35 28° NE 18:56:34 33° NNE 19:02:17 10° NW
CSL-04 Rocket 3.6 18:51:56 10° SSE 18:57:29 80° ENE 19:03:01 10° NNW
Cosmos 2227 Rocket 3.1 18:52:51 10° NW 18:58:17 48° WSW 19:03:41 10° S
MOS 1 Rocket 3.2 18:54:25 10° NNE 18:59:10 85° ESE 19:04:12 10° SSW
Cosmos 2263 Rocket 3.2 18:57:15 10° N 19:01:10 29° NNE 19:01:10 29° NNE
CZ-4 R/B 2.5 19:00:03 10° S 19:03:43 41° W 19:07:23 10° NNW
ATLAS 2AS CENTAUR R/B 3.2 19:01:41 10° NNW 19:08:46 42° NE 19:09:28 41° NE
BREEZE-M R/B 4.1 19:04:25 10° WNW 19:08:56 64° NNE 19:10:34 50° ENE
Cosmos 2058 4.2 19:06:20 10° NNW 19:10:10 39° W 19:14:00 10° SSW
Cosmos 1825 3.1 19:06:29 10° NNW 19:09:13 43° NW 19:09:13 43° NW
Lacrosse 5 3.5 19:07:51 10° NW 19:11:26 21° N 19:11:26 21° N
Cosmos 1697 Rocket 3.1 19:06:26 10° SW 19:11:58 60° WNW 19:16:32 16° NNE
Atlas Centaur 2 4.0 19:06:44 10° WSW 19:14:00 33° S 19:16:24 28° SSE
Cosmos 44 Rocket 3.2 19:12:26 10° SW 19:17:11 79° WNW 19:17:11 79° WNW
Okean-O 4.4 19:14:00 10° SSW 19:17:55 31° W 19:21:52 10° NW
SL-4 R/B 3.7 19:16:35 10° NW 19:18:22 25° NW 19:18:22 25° NW
Timation 1 Rocket 4.3 19:17:51 10° NNW 19:23:55 85° WSW 19:24:54 64° SSE
USA 305 4.2 19:29:05 10° WNW 19:31:55 38° WNW 19:31:55 38° WNW
Cosmos 1980 Rocket 2.3 19:29:28 10° SSW 19:35:05 73° WNW 19:35:17 72° NW
BREEZE-M TANK 3.9 19:36:18 10° WNW 19:39:30 37° W 19:39:30 37° W
CZ-4C R/B 3.7 19:57:16 10° NNW 20:02:11 40° N 20:02:11 40° N
Milstar 3 4.5 20:03:57 10° SW 20:07:37 20° SSW 20:07:37 20° SSW
H-2A R/B 4.3 20:09:42 10° SW 20:13:54 23° W 20:18:09 10° NW
USA 215 4.5 20:41:56 35° NW 20:41:56 35° NW 20:45:29 10° NW
Cosmos 2263 Rocket 4.4 20:41:01 10° NW 20:42:52 20° NW 20:42:52 20° NW
ATLAS 2AS CENTAUR R/B 4.2 20:52:51 10° NW 20:56:55 33° WNW 20:56:55 33° WNW
